CCA1203 ZBAA-ZLXN

Flight info

Callsign CCA1203
Flight time 2h 13m
Altitude 27600
Route BOTPU6J BOTPU W47 OGEDO/K0869S0920 W47 IDSOT W48 MAKIP DCT MULOB W220 NIRUV B215 VENIV W198 PANRA DCT UPVOP UPV19A
Aircraft A320/M-SDE3FGHIRWY/LB1

Departure

Time 2026-05-06 11:30
Airport Beijing Capital International Airport (ZBAA)

Arrival

Time 2026-05-06 13:43
Airport Xining Caojiabao International Airport (ZLXN)
Time Latitude Longitude Altitude Speed Heading
2026-05-06 10:49 40.06649 116.60601 124 ft 0 kts 83°
2026-05-06 11:18 40.06648 116.60589 116 ft 4 kts 83°
2026-05-06 11:18 40.06645 116.60554 124 ft 4 kts 83°
2026-05-06 11:18 40.06642 116.60522 120 ft 2 kts 83°
2026-05-06 11:18 40.06637 116.60492 118 ft 4 kts 60°
2026-05-06 11:19 40.06619 116.60469 122 ft 4 kts 16°
2026-05-06 11:19 40.06597 116.60466 122 ft 1 kts 353°
2026-05-06 11:22 40.06620 116.60463 121 ft 6 kts 354°
2026-05-06 11:23 40.06644 116.60459 121 ft 5 kts 353°
2026-05-06 11:23 40.06653 116.60458 122 ft 5 kts 353°
2026-05-06 11:23 40.06707 116.60450 120 ft 12 kts 353°
2026-05-06 11:23 40.06781 116.60429 122 ft 10 kts 324°
2026-05-06 11:24 40.06786 116.60307 124 ft 18 kts 263°
2026-05-06 11:24 40.06771 116.60143 120 ft 19 kts 263°
2026-05-06 11:24 40.06820 116.60052 122 ft 13 kts 352°
2026-05-06 11:24 40.06920 116.60036 121 ft 15 kts 353°
2026-05-06 11:25 40.07018 116.60021 122 ft 13 kts 353°
2026-05-06 11:25 40.07122 116.60005 122 ft 18 kts 353°
2026-05-06 11:25 40.07242 116.59986 121 ft 17 kts 353°
2026-05-06 11:25 40.07366 116.59966 121 ft 21 kts 353°
2026-05-06 11:26 40.07523 116.59942 122 ft 24 kts 353°
2026-05-06 11:26 40.07690 116.59917 122 ft 25 kts 353°
2026-05-06 11:26 40.07863 116.59891 122 ft 25 kts 353°
2026-05-06 11:26 40.08042 116.59860 121 ft 26 kts 352°
2026-05-06 11:27 40.08226 116.59832 123 ft 26 kts 353°
2026-05-06 11:27 40.08406 116.59804 123 ft 26 kts 353°
2026-05-06 11:27 40.08587 116.59774 123 ft 27 kts 353°
2026-05-06 11:27 40.08775 116.59745 121 ft 28 kts 353°
2026-05-06 11:28 40.08891 116.59682 121 ft 15 kts 270°
2026-05-06 11:28 40.08879 116.59550 124 ft 14 kts 258°
2026-05-06 11:28 40.08805 116.59505 120 ft 6 kts 175°
2026-05-06 11:28 40.08804 116.59505 120 ft 0 kts 175°
2026-05-06 11:29 40.08749 116.59514 122 ft 34 kts 172°
2026-05-06 11:29 40.08272 116.59589 120 ft 101 kts 173°
2026-05-06 11:29 40.07401 116.59725 124 ft 150 kts 173°
2026-05-06 11:29 40.06252 116.59925 326 ft 175 kts 172°
2026-05-06 11:30 40.05013 116.60126 914 ft 180 kts 171°
2026-05-06 11:30 40.03765 116.60316 1565 ft 185 kts 170°
2026-05-06 11:30 40.02406 116.60527 1911 ft 206 kts 171°
2026-05-06 11:30 40.01003 116.60743 2018 ft 207 kts 171°
2026-05-06 11:31 39.99482 116.60979 2352 ft 232 kts 171°
2026-05-06 11:31 39.97823 116.61239 2769 ft 253 kts 173°
2026-05-06 11:31 39.96004 116.61521 3431 ft 266 kts 174°
2026-05-06 11:31 39.94160 116.61802 4143 ft 275 kts 175°
2026-05-06 11:32 39.92242 116.62094 4974 ft 280 kts 175°
2026-05-06 11:32 39.90287 116.62393 5726 ft 287 kts 175°
2026-05-06 11:32 39.88280 116.62702 6476 ft 294 kts 175°
2026-05-06 11:32 39.86235 116.63018 7242 ft 298 kts 175°
2026-05-06 11:33 39.84161 116.63340 8026 ft 302 kts 175°
2026-05-06 11:33 39.82055 116.63670 8791 ft 307 kts 175°
2026-05-06 11:33 39.79917 116.64001 9579 ft 311 kts 175°
2026-05-06 11:33 39.77758 116.64333 10295 ft 316 kts 176°
2026-05-06 11:34 39.75496 116.64674 10546 ft 339 kts 176°
2026-05-06 11:34 39.73071 116.64919 10711 ft 359 kts 185°
2026-05-06 11:34 39.70581 116.64303 10950 ft 369 kts 205°
2026-05-06 11:34 39.68346 116.62703 11534 ft 367 kts 222°
2026-05-06 11:35 39.66603 116.60346 12268 ft 360 kts 239°
2026-05-06 11:35 39.65783 116.58446 12790 ft 355 kts 250°
2026-05-06 11:35 39.65164 116.55419 13545 ft 351 kts 265°
2026-05-06 11:35 39.64963 116.52265 14218 ft 351 kts 266°
2026-05-06 11:36 39.64770 116.49105 14851 ft 352 kts 266°
2026-05-06 11:36 39.64504 116.44854 15695 ft 354 kts 265°
2026-05-06 11:36 39.64368 116.42751 16097 ft 354 kts 265°
2026-05-06 11:36 39.64158 116.39556 16704 ft 356 kts 265°
2026-05-06 11:37 39.63946 116.36355 17300 ft 357 kts 264°
2026-05-06 11:37 39.63734 116.33140 17889 ft 359 kts 264°
2026-05-06 11:37 39.63520 116.29910 18426 ft 360 kts 264°
2026-05-06 11:37 39.63304 116.26665 18909 ft 362 kts 264°
2026-05-06 11:38 39.63087 116.23407 19386 ft 365 kts 265°
2026-05-06 11:38 39.62868 116.20116 19821 ft 367 kts 265°
2026-05-06 11:38 39.62648 116.16800 20278 ft 369 kts 264°
2026-05-06 11:38 39.62428 116.13475 20745 ft 371 kts 264°
2026-05-06 11:39 39.62206 116.10129 21211 ft 373 kts 264°
2026-05-06 11:39 39.61982 116.06768 21659 ft 375 kts 264°
2026-05-06 11:39 39.61753 116.03390 22100 ft 377 kts 264°
2026-05-06 11:39 39.61523 116.00004 22541 ft 379 kts 264°
2026-05-06 11:40 39.61288 115.96594 22969 ft 380 kts 264°
2026-05-06 11:40 39.61047 115.93168 23413 ft 382 kts 264°
2026-05-06 11:40 39.60806 115.89732 23726 ft 384 kts 264°
2026-05-06 11:40 39.60647 115.86273 24059 ft 386 kts 270°
2026-05-06 11:41 39.60961 115.82801 24398 ft 391 kts 279°
2026-05-06 11:41 39.61812 115.79432 24730 ft 398 kts 289°
2026-05-06 11:41 39.63101 115.76228 25050 ft 401 kts 293°
2026-05-06 11:41 39.64430 115.73041 25329 ft 402 kts 292°
2026-05-06 11:42 39.65762 115.69836 25639 ft 405 kts 294°
2026-05-06 11:42 39.67388 115.66813 26000 ft 414 kts 304°
2026-05-06 11:42 39.69497 115.64195 26336 ft 426 kts 315°
2026-05-06 11:42 39.72042 115.62136 26648 ft 439 kts 327°
2026-05-06 11:43 39.74870 115.60551 26896 ft 444 kts 329°
2026-05-06 11:43 39.77723 115.58990 27117 ft 446 kts 329°
2026-05-06 11:43 39.80585 115.57423 27393 ft 448 kts 329°
2026-05-06 11:44 39.86351 115.54251 27931 ft 451 kts 328°
2026-05-06 11:44 39.89238 115.52655 28288 ft 451 kts 328°
2026-05-06 11:44 39.92051 115.50940 28727 ft 441 kts 321°
2026-05-06 11:44 39.94491 115.48618 29076 ft 427 kts 309°
2026-05-06 11:45 39.96441 115.45776 29429 ft 416 kts 298°
2026-05-06 11:45 39.97873 115.42565 29793 ft 406 kts 288°
2026-05-06 11:45 39.98781 115.39128 30054 ft 398 kts 278°
2026-05-06 11:45 39.99166 115.35584 30092 ft 394 kts 270°
2026-05-06 11:46 39.99523 115.28468 30079 ft 392 kts 270°
2026-05-06 11:46 39.99886 115.21391 30095 ft 391 kts 270°
2026-05-06 11:47 40.00243 115.14316 30098 ft 391 kts 270°
2026-05-06 11:47 40.00596 115.07235 30066 ft 391 kts 270°
2026-05-06 11:48 40.00948 115.00155 30108 ft 391 kts 270°
2026-05-06 11:48 40.01292 114.93067 30109 ft 391 kts 270°
2026-05-06 11:49 40.01637 114.85989 30110 ft 391 kts 270°
2026-05-06 11:49 40.01975 114.78910 30109 ft 391 kts 270°
2026-05-06 11:50 40.02307 114.71840 30109 ft 390 kts 270°
2026-05-06 11:50 40.02635 114.64765 30109 ft 390 kts 270°
2026-05-06 11:51 40.02951 114.57698 30109 ft 391 kts 270°
2026-05-06 11:51 40.03274 114.50624 30118 ft 390 kts 270°
2026-05-06 11:52 40.03589 114.43549 30117 ft 390 kts 270°
2026-05-06 11:52 40.03894 114.36482 30151 ft 390 kts 270°
2026-05-06 11:53 40.04199 114.29438 30153 ft 388 kts 270°
2026-05-06 11:53 40.04499 114.22418 30158 ft 387 kts 270°
2026-05-06 11:54 40.04792 114.15425 30152 ft 386 kts 270°
2026-05-06 11:54 40.05197 114.08435 30153 ft 386 kts 272°
2026-05-06 11:55 40.05756 114.01467 30175 ft 386 kts 273°
2026-05-06 11:55 40.06313 113.94521 30178 ft 384 kts 273°
2026-05-06 11:56 40.06822 113.87584 30117 ft 384 kts 272°
2026-05-06 11:56 40.07300 113.80688 30124 ft 385 kts 272°
2026-05-06 11:57 40.07792 113.73720 30168 ft 385 kts 273°
2026-05-06 11:57 40.08294 113.66763 30171 ft 384 kts 273°
2026-05-06 11:58 40.08782 113.59816 30175 ft 384 kts 273°
2026-05-06 11:58 40.09263 113.52888 30170 ft 383 kts 272°
2026-05-06 11:59 40.09734 113.45962 30169 ft 383 kts 272°
2026-05-06 11:59 40.10206 113.39040 30169 ft 382 kts 272°
2026-05-06 12:00 40.10678 113.32130 30171 ft 382 kts 272°
2026-05-06 12:00 40.11146 113.25223 30168 ft 381 kts 272°
2026-05-06 12:01 40.11606 113.18327 30175 ft 381 kts 272°
2026-05-06 12:01 40.12062 113.11424 30169 ft 381 kts 272°
2026-05-06 12:02 40.12513 113.04526 30186 ft 381 kts 272°
2026-05-06 12:02 40.12955 112.97630 30191 ft 381 kts 272°
2026-05-06 12:03 40.13400 112.90728 30188 ft 381 kts 272°
2026-05-06 12:03 40.13838 112.83829 30197 ft 381 kts 272°
2026-05-06 12:04 40.14264 112.76932 30197 ft 381 kts 272°
2026-05-06 12:04 40.14692 112.70085 30201 ft 380 kts 272°
2026-05-06 12:05 40.15119 112.63147 30191 ft 380 kts 272°
2026-05-06 12:05 40.15536 112.56298 30205 ft 380 kts 272°
2026-05-06 12:06 40.15954 112.49407 30209 ft 380 kts 271°
2026-05-06 12:06 40.15369 112.42587 30208 ft 381 kts 254°
2026-05-06 12:07 40.13572 112.36068 30200 ft 381 kts 252°
2026-05-06 12:07 40.11764 112.29555 30210 ft 381 kts 252°
2026-05-06 12:08 40.09945 112.23048 30214 ft 381 kts 252°
2026-05-06 12:08 40.08128 112.16542 30213 ft 382 kts 252°
2026-05-06 12:09 40.06306 112.10033 30228 ft 382 kts 252°
2026-05-06 12:09 40.04478 112.03530 30178 ft 381 kts 252°
2026-05-06 12:10 40.02640 111.97007 30212 ft 384 kts 252°
2026-05-06 12:10 40.00790 111.90470 30215 ft 384 kts 252°
2026-05-06 12:11 39.98485 111.84176 30211 ft 390 kts 239°
2026-05-06 12:11 39.94582 111.79123 30230 ft 401 kts 227°
2026-05-06 12:12 39.90287 111.74478 30215 ft 401 kts 227°
2026-05-06 12:12 39.85980 111.69818 30202 ft 404 kts 227°
2026-05-06 12:13 39.81657 111.65139 30205 ft 404 kts 227°
2026-05-06 12:13 39.77337 111.60465 30208 ft 404 kts 227°
2026-05-06 12:14 39.73011 111.55810 30206 ft 404 kts 226°
2026-05-06 12:14 39.68696 111.51168 30211 ft 408 kts 226°
2026-05-06 12:15 39.64322 111.46468 30216 ft 408 kts 226°
2026-05-06 12:15 39.59951 111.41789 30207 ft 407 kts 226°
2026-05-06 12:16 39.55591 111.37123 30200 ft 406 kts 226°
2026-05-06 12:16 39.51232 111.32455 30181 ft 406 kts 226°
2026-05-06 12:17 39.46869 111.27799 30180 ft 407 kts 226°
2026-05-06 12:17 39.42497 111.23150 30177 ft 407 kts 226°
2026-05-06 12:18 39.38122 111.18501 30177 ft 407 kts 226°
2026-05-06 12:18 39.33734 111.13839 30188 ft 410 kts 226°
2026-05-06 12:19 39.29316 111.09157 30192 ft 411 kts 226°
2026-05-06 12:19 39.24897 111.04487 30189 ft 410 kts 226°
2026-05-06 12:20 39.20508 110.99795 30186 ft 406 kts 230°
2026-05-06 12:20 39.17353 110.93976 30187 ft 392 kts 250°
2026-05-06 12:21 39.16175 110.87209 30187 ft 388 kts 269°
2026-05-06 12:21 39.16403 110.81441 30185 ft 388 kts 272°
2026-05-06 12:22 39.16791 110.73369 30204 ft 388 kts 272°
2026-05-06 12:22 39.17066 110.67554 30200 ft 388 kts 272°
2026-05-06 12:23 39.17390 110.60619 30202 ft 388 kts 272°
2026-05-06 12:23 39.17703 110.53675 30200 ft 388 kts 272°
2026-05-06 12:24 39.18017 110.46787 30199 ft 387 kts 272°
2026-05-06 12:24 39.18324 110.39854 30203 ft 387 kts 272°
2026-05-06 12:25 39.18629 110.32922 30210 ft 387 kts 272°
2026-05-06 12:25 39.18935 110.25991 30210 ft 387 kts 272°
2026-05-06 12:26 39.19233 110.19059 30221 ft 387 kts 272°
2026-05-06 12:26 39.19535 110.12128 30234 ft 387 kts 273°
2026-05-06 12:27 39.19878 110.05213 30242 ft 386 kts 273°
2026-05-06 12:27 39.20221 109.98302 30238 ft 386 kts 273°
2026-05-06 12:28 39.20551 109.91398 30244 ft 386 kts 273°
2026-05-06 12:28 39.20872 109.84502 30241 ft 385 kts 273°
2026-05-06 12:29 39.21193 109.77604 30257 ft 385 kts 273°
2026-05-06 12:29 39.21500 109.70717 30232 ft 385 kts 273°
2026-05-06 12:30 39.21807 109.63824 30237 ft 387 kts 273°
2026-05-06 12:30 39.22113 109.56896 30242 ft 387 kts 273°
2026-05-06 12:31 39.22413 109.49977 30250 ft 387 kts 272°
2026-05-06 12:31 39.22690 109.43053 30256 ft 386 kts 272°
2026-05-06 12:32 39.22947 109.36185 30255 ft 386 kts 272°
2026-05-06 12:32 39.23205 109.29275 30252 ft 385 kts 272°
2026-05-06 12:33 39.23464 109.22375 30262 ft 385 kts 272°
2026-05-06 12:33 39.23721 109.15475 30260 ft 385 kts 272°
2026-05-06 12:34 39.23968 109.08574 30271 ft 385 kts 273°
2026-05-06 12:34 39.24212 109.01678 30261 ft 385 kts 273°
2026-05-06 12:35 39.24453 108.94783 30259 ft 385 kts 273°
2026-05-06 12:35 39.24683 108.87891 30259 ft 384 kts 273°
2026-05-06 12:36 39.24916 108.81001 30267 ft 384 kts 273°
2026-05-06 12:36 39.25143 108.74113 30271 ft 384 kts 273°
2026-05-06 12:37 39.25366 108.67228 30271 ft 384 kts 273°
2026-05-06 12:37 39.25594 108.60342 30271 ft 384 kts 273°
2026-05-06 12:38 39.25810 108.53467 30276 ft 384 kts 273°
2026-05-06 12:38 39.26027 108.46586 30274 ft 384 kts 273°
2026-05-06 12:39 39.26240 108.39707 30289 ft 384 kts 273°
2026-05-06 12:39 39.26443 108.32834 30280 ft 383 kts 273°
2026-05-06 12:40 39.26639 108.26009 30276 ft 383 kts 273°
2026-05-06 12:40 39.26833 108.19143 30278 ft 383 kts 273°
2026-05-06 12:41 39.27025 108.12279 30280 ft 383 kts 273°
2026-05-06 12:41 39.27216 108.05419 30275 ft 383 kts 273°
2026-05-06 12:42 39.27411 107.98529 30283 ft 385 kts 273°
2026-05-06 12:42 39.27596 107.91619 30288 ft 385 kts 272°
2026-05-06 12:43 39.27769 107.84722 30289 ft 384 kts 272°
2026-05-06 12:43 39.27939 107.77835 30285 ft 384 kts 272°
2026-05-06 12:44 39.28106 107.70950 30279 ft 384 kts 273°
2026-05-06 12:44 39.27550 107.64111 30272 ft 389 kts 257°
2026-05-06 12:45 39.25013 107.57906 30267 ft 401 kts 241°
2026-05-06 12:46 39.20197 107.49085 30268 ft 401 kts 241°
2026-05-06 12:46 39.16986 107.43203 30262 ft 401 kts 241°
2026-05-06 12:47 39.13775 107.37303 30262 ft 405 kts 242°
2026-05-06 12:47 39.10537 107.31349 30263 ft 406 kts 241°
2026-05-06 12:48 39.07284 107.25413 30257 ft 406 kts 241°
2026-05-06 12:48 39.04021 107.19493 30257 ft 405 kts 241°
2026-05-06 12:49 39.00763 107.13583 30249 ft 405 kts 241°
2026-05-06 12:49 38.97504 107.07672 30231 ft 406 kts 241°
2026-05-06 12:50 38.94226 107.01744 30251 ft 407 kts 241°
2026-05-06 12:50 38.90941 106.95831 30254 ft 406 kts 241°
2026-05-06 12:51 38.87688 106.89963 30244 ft 406 kts 241°
2026-05-06 12:51 38.84414 106.84067 30243 ft 405 kts 241°
2026-05-06 12:52 38.81137 106.78184 30243 ft 405 kts 241°
2026-05-06 12:52 38.77853 106.72284 30238 ft 408 kts 240°
2026-05-06 12:53 38.74555 106.66374 30238 ft 407 kts 240°
2026-05-06 12:53 38.71255 106.60477 30238 ft 407 kts 240°
2026-05-06 12:54 38.67951 106.54588 30237 ft 407 kts 240°
2026-05-06 12:54 38.64645 106.48709 30236 ft 407 kts 240°
2026-05-06 12:55 38.61345 106.42834 30211 ft 407 kts 240°
2026-05-06 12:55 38.58031 106.36955 30219 ft 408 kts 240°
2026-05-06 12:56 38.54700 106.31084 30222 ft 408 kts 240°
2026-05-06 12:56 38.51371 106.25209 30218 ft 408 kts 240°
2026-05-06 12:57 38.48038 106.19330 30236 ft 409 kts 240°
2026-05-06 12:57 38.44700 106.13457 30187 ft 409 kts 239°
2026-05-06 12:58 38.41311 106.07580 30237 ft 413 kts 238°
2026-05-06 12:58 38.37821 106.01756 30241 ft 413 kts 238°
2026-05-06 12:59 38.34353 105.95997 30244 ft 412 kts 238°
2026-05-06 12:59 38.30875 105.90194 30248 ft 412 kts 239°
2026-05-06 13:00 38.27402 105.84396 30238 ft 412 kts 239°
2026-05-06 13:00 38.23908 105.78579 30236 ft 415 kts 238°
2026-05-06 13:01 38.20396 105.72751 30247 ft 415 kts 238°
2026-05-06 13:01 38.16886 105.66930 30246 ft 415 kts 238°
2026-05-06 13:02 38.13381 105.61111 30285 ft 414 kts 239°
2026-05-06 13:02 38.09879 105.55311 30279 ft 414 kts 239°
2026-05-06 13:03 38.06375 105.49524 30237 ft 413 kts 238°
2026-05-06 13:03 38.02866 105.43739 30243 ft 414 kts 238°
2026-05-06 13:04 37.99344 105.37951 30247 ft 414 kts 238°
2026-05-06 13:04 37.95823 105.32172 30253 ft 415 kts 238°
2026-05-06 13:05 37.92296 105.26394 30256 ft 415 kts 238°
2026-05-06 13:05 37.88770 105.20616 30262 ft 415 kts 238°
2026-05-06 13:06 37.85236 105.14840 30261 ft 415 kts 238°
2026-05-06 13:06 37.81697 105.09075 30261 ft 415 kts 238°
2026-05-06 13:07 37.78180 105.03343 30270 ft 415 kts 238°
2026-05-06 13:07 37.74637 104.97586 30271 ft 415 kts 238°
2026-05-06 13:08 37.71090 104.91837 30262 ft 415 kts 237°
2026-05-06 13:08 37.67531 104.86071 30278 ft 417 kts 237°
2026-05-06 13:09 37.63964 104.80301 30284 ft 417 kts 237°
2026-05-06 13:09 37.60399 104.74541 30284 ft 416 kts 237°
2026-05-06 13:10 37.56821 104.68793 30283 ft 416 kts 237°
2026-05-06 13:10 37.53243 104.63052 30294 ft 416 kts 237°
2026-05-06 13:11 37.49676 104.57312 30272 ft 416 kts 237°
2026-05-06 13:11 37.46708 104.52548 30279 ft 416 kts 237°
2026-05-06 13:12 37.43147 104.46811 30298 ft 415 kts 238°
2026-05-06 13:12 37.39078 104.40044 30295 ft 415 kts 238°
2026-05-06 13:13 37.36195 104.35223 30308 ft 415 kts 238°
2026-05-06 13:13 37.32699 104.29445 30310 ft 415 kts 238°
2026-05-06 13:14 37.29199 104.23684 30298 ft 415 kts 238°
2026-05-06 13:14 37.25697 104.17918 30304 ft 415 kts 238°
2026-05-06 13:15 37.22191 104.12153 30316 ft 416 kts 238°
2026-05-06 13:15 37.19064 104.06130 30336 ft 408 kts 250°
2026-05-06 13:16 37.16948 103.99554 30335 ft 407 kts 252°
2026-05-06 13:16 37.14825 103.92981 30340 ft 407 kts 251°
2026-05-06 13:17 37.12689 103.86404 30346 ft 407 kts 251°
2026-05-06 13:17 37.10555 103.79839 30349 ft 407 kts 251°
2026-05-06 13:18 37.08415 103.73269 30373 ft 407 kts 251°
2026-05-06 13:18 37.06272 103.66702 30373 ft 407 kts 251°
2026-05-06 13:19 37.04129 103.60135 30394 ft 408 kts 251°
2026-05-06 13:19 37.01986 103.53570 30397 ft 408 kts 251°
2026-05-06 13:20 36.99833 103.47012 30409 ft 408 kts 251°
2026-05-06 13:20 36.97677 103.40454 30407 ft 408 kts 251°
2026-05-06 13:21 36.95511 103.33894 30384 ft 408 kts 250°
2026-05-06 13:21 36.93358 103.27381 30396 ft 409 kts 250°
2026-05-06 13:22 36.91220 103.20808 30399 ft 408 kts 251°
2026-05-06 13:22 36.89099 103.14222 30407 ft 409 kts 251°
2026-05-06 13:23 36.86975 103.07640 30404 ft 409 kts 251°
2026-05-06 13:23 36.84836 103.01066 30413 ft 408 kts 250°
2026-05-06 13:24 36.81937 102.94963 30411 ft 418 kts 231°
2026-05-06 13:24 36.79688 102.92607 30400 ft 428 kts 219°
2026-05-06 13:24 36.76993 102.90937 30385 ft 440 kts 206°
2026-05-06 13:24 36.73958 102.90081 30401 ft 454 kts 194°
2026-05-06 13:25 36.70817 102.89628 30394 ft 455 kts 193°
2026-05-06 13:25 36.64531 102.88754 30399 ft 456 kts 193°
2026-05-06 13:26 36.58232 102.87878 30387 ft 456 kts 193°
2026-05-06 13:26 36.52033 102.86603 30355 ft 443 kts 207°
2026-05-06 13:26 36.49369 102.84828 30371 ft 430 kts 223°
2026-05-06 13:27 36.47272 102.82255 30376 ft 420 kts 237°
2026-05-06 13:27 36.45781 102.79182 30372 ft 414 kts 249°
2026-05-06 13:27 36.44951 102.75789 30385 ft 410 kts 262°
2026-05-06 13:27 36.44854 102.72264 30385 ft 409 kts 276°
2026-05-06 13:28 36.45408 102.68804 30389 ft 411 kts 285°
2026-05-06 13:28 36.48070 102.62489 29813 ft 421 kts 305°
2026-05-06 13:28 36.50147 102.59880 29273 ft 429 kts 315°
2026-05-06 13:29 36.52460 102.57512 28743 ft 432 kts 316°
2026-05-06 13:29 36.54781 102.55125 28075 ft 434 kts 316°
2026-05-06 13:29 36.57107 102.52710 27392 ft 436 kts 314°
2026-05-06 13:29 36.59208 102.50016 26745 ft 433 kts 306°
2026-05-06 13:30 36.60934 102.46957 26077 ft 432 kts 298°
2026-05-06 13:30 36.62245 102.43648 25442 ft 431 kts 290°
2026-05-06 13:30 36.63254 102.40093 24818 ft 429 kts 288°
2026-05-06 13:30 36.64225 102.36576 24203 ft 430 kts 289°
2026-05-06 13:31 36.65187 102.33105 23535 ft 429 kts 289°
2026-05-06 13:31 36.66158 102.29600 22820 ft 427 kts 289°
2026-05-06 13:31 36.67125 102.26109 22116 ft 425 kts 289°
2026-05-06 13:31 36.68083 102.22636 21435 ft 424 kts 289°
2026-05-06 13:32 36.69039 102.19170 20766 ft 422 kts 289°
2026-05-06 13:32 36.69990 102.15719 20098 ft 421 kts 289°
2026-05-06 13:32 36.70935 102.12273 19460 ft 419 kts 289°
2026-05-06 13:32 36.71872 102.08845 18840 ft 417 kts 289°
2026-05-06 13:33 36.72805 102.05429 18168 ft 416 kts 290°
2026-05-06 13:33 36.73740 102.02020 17433 ft 416 kts 289°
2026-05-06 13:33 36.74673 101.98616 16779 ft 414 kts 289°
2026-05-06 13:33 36.75594 101.95243 16417 ft 406 kts 289°
2026-05-06 13:34 36.76478 101.91948 16067 ft 397 kts 287°
2026-05-06 13:34 36.76931 101.88617 15709 ft 380 kts 272°
2026-05-06 13:34 36.76723 101.85430 15370 ft 360 kts 258°
2026-05-06 13:34 36.75959 101.82550 15081 ft 340 kts 244°
2026-05-06 13:35 36.74847 101.80038 15004 ft 321 kts 239°
2026-05-06 13:35 36.73785 101.77703 14913 ft 300 kts 240°
2026-05-06 13:35 36.72786 101.75490 14793 ft 288 kts 240°
2026-05-06 13:35 36.71807 101.73354 14667 ft 279 kts 235°
2026-05-06 13:36 36.70543 101.71597 14533 ft 266 kts 216°
2026-05-06 13:36 36.68987 101.70435 14164 ft 259 kts 199°
2026-05-06 13:36 36.67258 101.69907 13697 ft 254 kts 181°
2026-05-06 13:36 36.65527 101.70028 13316 ft 246 kts 164°
2026-05-06 13:37 36.63935 101.70724 12779 ft 245 kts 150°
2026-05-06 13:37 36.62546 101.71967 12155 ft 248 kts 133°
2026-05-06 13:37 36.61517 101.73654 11785 ft 241 kts 117°
2026-05-06 13:37 36.60890 101.75555 11474 ft 234 kts 109°
2026-05-06 13:38 36.60371 101.77441 11175 ft 227 kts 109°
2026-05-06 13:38 36.59874 101.79251 10909 ft 214 kts 109°
2026-05-06 13:38 36.59411 101.80930 10633 ft 196 kts 109°
2026-05-06 13:38 36.58989 101.82461 10397 ft 180 kts 109°
2026-05-06 13:39 36.58592 101.83895 10200 ft 169 kts 108°
2026-05-06 13:39 36.58219 101.85246 9959 ft 161 kts 109°
2026-05-06 13:39 36.57857 101.86557 9743 ft 159 kts 109°
2026-05-06 13:39 36.57499 101.87851 9518 ft 158 kts 109°
2026-05-06 13:40 36.57145 101.89129 9332 ft 154 kts 109°
2026-05-06 13:40 36.56798 101.90382 9107 ft 152 kts 109°
2026-05-06 13:40 36.56457 101.91616 8908 ft 151 kts 108°
2026-05-06 13:40 36.56117 101.92841 8706 ft 151 kts 108°
2026-05-06 13:41 36.55774 101.94081 8503 ft 152 kts 109°
2026-05-06 13:41 36.55432 101.95312 8307 ft 150 kts 108°
2026-05-06 13:41 36.55087 101.96557 8112 ft 150 kts 108°
2026-05-06 13:41 36.54748 101.97777 7915 ft 150 kts 109°
2026-05-06 13:42 36.54409 101.98999 7739 ft 150 kts 107°
2026-05-06 13:42 36.54078 102.00201 7469 ft 147 kts 108°
2026-05-06 13:42 36.53742 102.01397 7297 ft 147 kts 109°
2026-05-06 13:42 36.53409 102.02584 7167 ft 138 kts 109°
2026-05-06 13:43 36.53152 102.03530 7164 ft 91 kts 109°
2026-05-06 13:43 36.53002 102.04061 7167 ft 39 kts 109°
2026-05-06 13:43 36.52904 102.04269 7160 ft 13 kts 131°
2026-05-06 13:43 36.52852 102.04333 7169 ft 11 kts 142°
2026-05-06 13:44 36.52777 102.04361 7169 ft 12 kts 182°
2026-05-06 13:44 36.52715 102.04350 7169 ft 5 kts 196°
2026-05-06 13:44 36.52689 102.04340 7169 ft 3 kts 198°
2026-05-06 13:44 36.52673 102.04333 7169 ft 2 kts 199°
2026-05-06 13:45 36.52668 102.04331 7169 ft 0 kts 199°
2026-05-06 13:45 36.52580 102.04294 7171 ft 2 kts 197°
2026-05-06 13:45 36.52576 102.04293 7171 ft 0 kts 197°
2026-05-06 13:46 36.52565 102.04283 7174 ft 2 kts 218°
2026-05-06 13:46 36.52558 102.04237 7161 ft 0 kts 271°
2026-05-06 13:46 36.52561 102.04233 7159 ft 2 kts 303°
2026-05-06 13:47 36.52570 102.04221 7160 ft 1 kts 304°
2026-05-06 13:47 36.52571 102.04214 7163 ft 1 kts 291°
2026-05-06 13:47 36.52571 102.04213 7163 ft 0 kts 291°